Dati storici per la stazione Viterbometeo
 
Giornaliero Riepilogo per Ottobre 03, 2022 Unità:  Metrico    English   Both
Giornaliero Settimanale Mensile Annuale
  Corrente: Alta: Bassa: Media:
Temperatura : 13.2 °C 17.4 °C 13.2 °C 16.1 °C
Punto di rugiada : 11.7 °C 12.9 °C 11.4 °C 12.2 °C
Umidità : 91% 91% 71% 78%
Vel. del vento : 6.4km/h 17.7km/h 0km/h 9.5km/h
Raffica di vento : 17.7km/h 22.5km/h - -
Vento NE - - ENE
Pressione : 1017.6 hPa 1019.0 hPa 1017.6 hPa -
Precipitazione : 0.0 mm      
 
 
Dati tabulari per Ottobre 03, 2022
Ora Temperatura Punto di rugiada Pressione Vento Velocità del vento Raffica di vento Umidità Tasso di pioggia (Ogni ora)
00:00 16.4 °C 12.4 °C 1019.0 hPa Calm   3.2 km/h 77% 0.0 mm
00:05 16.3 °C 12.7 °C 1019.0 hPa East 1.6 km/h 3.2 km/h 79% 0.0 mm
00:10 16.3 °C 12.2 °C 1019.0 hPa East 3.2 km/h 4.8 km/h 77% 0.0 mm
00:15 16.2 °C 12.3 °C 1018.6 hPa NE 3.2 km/h 6.4 km/h 78% 0.0 mm
00:20 16.2 °C 12.2 °C 1018.6 hPa ENE 6.4 km/h 9.7 km/h 77% 0.0 mm
00:25 16.1 °C 11.8 °C 1018.6 hPa NE 11.3 km/h 14.5 km/h 76% 0.0 mm
00:30 16.3 °C 12.2 °C 1018.6 hPa ENE 12.9 km/h 14.5 km/h 77% 0.0 mm
00:35 16.6 °C 12.1 °C 1018.6 hPa ENE 6.4 km/h 12.9 km/h 75% 0.0 mm
00:40 16.9 °C 12.2 °C 1018.3 hPa ENE 6.4 km/h 12.9 km/h 74% 0.0 mm
00:45 16.8 °C 12.2 °C 1018.3 hPa East 6.4 km/h 11.3 km/h 74% 0.0 mm
00:50 16.7 °C 12.1 °C 1018.3 hPa East 9.7 km/h 12.9 km/h 74% 0.0 mm
00:55 16.9 °C 12.2 °C 1018.3 hPa East 6.4 km/h 11.3 km/h 74% 0.0 mm
01:00 17.2 °C 12.1 °C 1018.3 hPa East 8 km/h 11.3 km/h 72% 0.0 mm
01:05 17.3 °C 12.2 °C 1018.3 hPa East 6.4 km/h 12.9 km/h 72% 0.0 mm
01:10 17.3 °C 12.2 °C 1018.0 hPa East 8 km/h 11.3 km/h 72% 0.0 mm
01:15 17.3 °C 12 °C 1018.0 hPa East 9.7 km/h 12.9 km/h 71% 0.0 mm
01:20 17.4 °C 12.1 °C 1018.3 hPa East 9.7 km/h 11.3 km/h 71% 0.0 mm
01:25 17.4 °C 12.1 °C 1018.0 hPa East 6.4 km/h 11.3 km/h 71% 0.0 mm
01:30 17.1 °C 11.9 °C 1018.3 hPa NNE 8 km/h 11.3 km/h 72% 0.0 mm
01:35 16.7 °C 11.8 °C 1018.3 hPa ENE 9.7 km/h 12.9 km/h 73% 0.0 mm
01:40 16.7 °C 11.8 °C 1018.0 hPa ENE 12.9 km/h 14.5 km/h 73% 0.0 mm
01:45 16.6 °C 11.7 °C 1018.0 hPa ENE 16.1 km/h 17.7 km/h 73% 0.0 mm
01:50 16.7 °C 12.2 °C 1018.0 hPa ENE 14.5 km/h 16.1 km/h 75% 0.0 mm
01:55 16.7 °C 12.4 °C 1018.0 hPa ENE 14.5 km/h 17.7 km/h 76% 0.0 mm
02:00 16.6 °C 12.3 °C 1018.3 hPa ENE 12.9 km/h 16.1 km/h 76% 0.0 mm
02:05 16.4 °C 12.2 °C 1018.0 hPa ENE 8 km/h 16.1 km/h 76% 0.0 mm
02:10 16.3 °C 12.1 °C 1018.0 hPa NE 9.7 km/h 14.5 km/h 76% 0.0 mm
02:15 16.3 °C 12 °C 1018.0 hPa ENE 12.9 km/h 16.1 km/h 76% 0.0 mm
02:20 16.4 °C 12.3 °C 1018.0 hPa ENE 14.5 km/h 16.1 km/h 77% 0.0 mm
02:25 16.6 °C 12.3 °C 1018.0 hPa East 6.4 km/h 19.3 km/h 76% 0.0 mm
02:30 16.7 °C 12.4 °C 1018.0 hPa ENE 9.7 km/h 16.1 km/h 76% 0.0 mm
02:35 16.7 °C 12.6 °C 1018.0 hPa NE 9.7 km/h 16.1 km/h 77% 0.0 mm
02:40 16.6 °C 12.7 °C 1018.0 hPa ENE 4.8 km/h 16.1 km/h 78% 0.0 mm
02:45 16.5 °C 12.8 °C 1018.0 hPa ENE 14.5 km/h 14.5 km/h 79% 0.0 mm
02:50 16.4 °C 12.8 °C 1018.0 hPa ENE 14.5 km/h 17.7 km/h 79% 0.0 mm
02:55 16.6 °C 12.9 °C 1018.0 hPa NE 14.5 km/h 17.7 km/h 79% 0.0 mm
03:00 16.6 °C 12.9 °C 1018.0 hPa ENE 14.5 km/h 16.1 km/h 79% 0.0 mm
03:05 16.4 °C 12.8 °C 1018.0 hPa ENE 8 km/h 14.5 km/h 79% 0.0 mm
03:10 16.4 °C 12.8 °C 1018.0 hPa NE 8 km/h 11.3 km/h 79% 0.0 mm
03:15 16.3 °C 12.8 °C 1018.0 hPa NNE 8 km/h 12.9 km/h 80% 0.0 mm
03:20 16 °C 12.3 °C 1018.0 hPa NNE 8 km/h 17.7 km/h 79% 0.0 mm
03:25 15.3 °C 11.7 °C 1018.0 hPa NE 8 km/h 16.1 km/h 79% 0.0 mm
03:30 14.8 °C 11.6 °C 1018.0 hPa NE 11.3 km/h 16.1 km/h 81% 0.0 mm
03:35 14.4 °C 11.6 °C 1018.0 hPa NNE 12.9 km/h 17.7 km/h 83% 0.0 mm
03:40 14.1 °C 11.6 °C 1018.0 hPa NE 8 km/h 19.3 km/h 85% 0.0 mm
03:45 13.8 °C 11.7 °C 1018.0 hPa NNE 8 km/h 19.3 km/h 87% 0.0 mm
03:50 13.6 °C 11.6 °C 1018.0 hPa NE 9.7 km/h 19.3 km/h 88% 0.0 mm
03:55 13.4 °C 11.4 °C 1017.6 hPa NE 16.1 km/h 20.9 km/h 88% 0.0 mm
04:00 13.3 °C 11.5 °C 1017.6 hPa NE 17.7 km/h 22.5 km/h 89% 0.0 mm
04:05 13.2 °C 11.8 °C 1017.6 hPa NE 11.3 km/h 19.3 km/h 91% 0.0 mm
04:10 13.2 °C 11.7 °C 1017.6 hPa NE 6.4 km/h 17.7 km/h 91% 0.0 mm
Città di VITERBO
Compliments of Weather Underground - 2 mb